| time (UTC) | temp F | wind direction | speed MPH | gust MPH | rain 1hr in | rain 24hr in | rain mn in | humidity % | barometer mb |
| 20260507001322 | 61 | 8 | 3.0 | 7.0 | 0.00 | 0.00 | 0.00 | 87 | 1013.4 |
| 20260507000336 | 61 | 352 | 6.0 | 8.0 | 0.00 | 0.00 | 0.00 | 86 | 1013.5 |
| 20260506235325 | 61 | 321 | 3.0 | 12.0 | 0.00 | 0.00 | 0.00 | 86 | 1013.4 |
| 20260506234336 | 61 | 333 | 5.0 | 12.0 | 0.00 | 0.00 | 0.00 | 86 | 1013.3 |
| 20260506233327 | 61 | 18 | 4.0 | 8.0 | 0.00 | 0.00 | 0.00 | 86 | 1013.2 |
| 20260506232338 | 61 | 350 | 4.0 | 8.0 | 0.00 | 0.00 | 0.00 | 87 | 1013.2 |
| 20260506231328 | 61 | 339 | 4.0 | 9.0 | 0.00 | 0.00 | 0.00 | 86 | 1013.7 |
| 20260506230336 | 61 | 322 | 5.0 | 12.0 | 0.00 | 0.00 | 0.00 | 86 | 1012.9 |
| 20260506225326 | 62 | 351 | 4.0 | 11.0 | 0.00 | 0.00 | 0.00 | 86 | 1012.8 |
| 20260506224337 | 61 | 335 | 3.0 | 12.0 | 0.00 | 0.00 | 0.00 | 87 | 1013.3 |
| 20260506223328 | 61 | 330 | 5.0 | 11.0 | 0.00 | 0.00 | 0.00 | 87 | 1013.2 |
| 20260506222337 | 60 | 354 | 8.0 | 13.0 | 0.00 | 0.00 | 0.00 | 88 | 1012.8 |
| 20260506221327 | 60 | 323 | 4.0 | 12.0 | 0.00 | 0.00 | 0.00 | 88 | 1013.1 |
| 20260506220338 | 60 | 8 | 9.0 | 13.0 | 0.00 | 0.00 | 0.00 | 89 | 1013.2 |
| 20260506215329 | 60 | 2 | 7.0 | 12.0 | 0.00 | 0.00 | 0.00 | 88 | 1013.1 |
| 20260506214339 | 60 | 350 | 5.0 | 12.0 | 0.00 | 0.00 | 0.00 | 89 | 1013.1 |
| 20260506213351 | 60 | 321 | 7.0 | 12.0 | 0.00 | 0.00 | 0.00 | 89 | 1013.1 |
| 20260506212341 | 60 | 328 | 6.0 | 10.0 | 0.00 | 0.00 | 0.00 | 87 | 1013.4 |
| 20260506211323 | 60 | 325 | 6.0 | 11.0 | 0.00 | 0.00 | 0.00 | 87 | 1013.4 |
| 20260506210332 | 60 | 330 | 8.0 | 13.0 | 0.00 | 0.00 | 0.00 | 88 | 1013.2 |
| 20260506205323 | 60 | 320 | 5.0 | 15.0 | 0.00 | 0.00 | 0.00 | 87 | 1013.3 |
| 20260506204334 | 60 | 307 | 9.0 | 14.0 | 0.00 | 0.00 | 0.00 | 87 | 1013.4 |
| 20260506203324 | 60 | 316 | 6.0 | 12.0 | 0.00 | 0.00 | 0.00 | 88 | 1013.7 |
| 20260506202335 | 60 | 305 | 8.0 | 12.0 | 0.00 | 0.00 | 0.00 | 86 | 1013.7 |
| 20260506201327 | 61 | 335 | 6.0 | 15.0 | 0.00 | 0.00 | 0.00 | 87 | 1013.3 |
| 20260506200336 | 60 | 20 | 7.0 | 15.0 | 0.00 | 0.00 | 0.00 | 87 | 1013.2 |
| 20260506195326 | 61 | 322 | 8.0 | 16.0 | 0.00 | 0.00 | 0.00 | 87 | 1013.4 |
| 20260506194338 | 61 | 348 | 10.0 | 17.0 | 0.00 | 0.00 | 0.00 | 87 | 1013.3 |
| 20260506193329 | 62 | 319 | 7.0 | 15.0 | 0.00 | 0.00 | 0.00 | 86 | 1013.2 |
| 20260506192340 | 63 | 342 | 7.0 | 15.0 | 0.00 | 0.00 | 0.00 | 85 | 1013.4 |
| 20260506191328 | 63 | 321 | 8.0 | 14.0 | 0.00 | 0.00 | 0.00 | 85 | 1013.4 |
| 20260506190336 | 64 | 328 | 5.0 | 11.0 | 0.00 | 0.00 | 0.00 | 86 | 1013.2 |
| 20260506185329 | 65 | 342 | 4.0 | 12.0 | 0.00 | 0.00 | 0.00 | 87 | 1013.1 |
| 20260506184335 | 65 | 318 | 7.0 | 14.0 | 0.00 | 0.00 | 0.00 | 86 | 1013.0 |
| 20260506183326 | 65 | 5 | 9.0 | 17.0 | 0.00 | 0.00 | 0.00 | 86 | 1013.1 |
| 20260506182336 | 68 | 353 | 8.0 | 15.0 | 0.00 | 0.00 | 0.00 | 82 | 1013.1 |
| 20260506181346 | 69 | 327 | 8.0 | 12.0 | 0.00 | 0.00 | 0.00 | 82 | 1012.9 |
| 20260506180337 | 68 | 13 | 5.0 | 12.0 | 0.00 | 0.00 | 0.00 | 83 | 1012.7 |
| 20260506175348 | 68 | 33 | 6.0 | 10.0 | 0.00 | 0.00 | 0.00 | 84 | 1012.8 |
| 20260506174331 | 67 | 338 | 4.0 | 8.0 | 0.00 | 0.00 | 0.00 | 87 | 1012.6 |
| 20260506173322 | 67 | 30 | 4.0 | 6.0 | 0.00 | 0.00 | 0.00 | 85 | 1012.6 |
| 20260506172333 | 66 | 65 | 4.0 | 8.0 | 0.00 | 0.00 | 0.00 | 87 | 1012.5 |
| 20260506171324 | 65 | 61 | 4.0 | 9.0 | 0.00 | 0.00 | 0.00 | 89 | 1012.4 |
| 20260506170335 | 65 | 96 | 4.0 | 9.0 | 0.00 | 0.00 | 0.00 | 87 | 1012.4 |
| 20260506165325 | 64 | 37 | 7.0 | 12.0 | 0.00 | 0.00 | 0.00 | 89 | 1012.5 |
| 20260506164337 | 63 | 80 | 4.0 | 8.0 | 0.00 | 0.00 | 0.00 | 91 | 1012.5 |
| 20260506163328 | 62 | 33 | 5.0 | 10.0 | 0.00 | 0.00 | 0.00 | 91 | 1012.9 |
| 20260506162338 | 61 | 84 | 3.0 | 10.0 | 0.00 | 0.00 | 0.00 | 95 | 1013.1 |
| 20260506161328 | 59 | 60 | 4.0 | 12.0 | 0.00 | 0.00 | 0.00 | 94 | 1012.8 |
| 20260506160337 | 59 | 11 | 8.0 | 13.0 | 0.00 | 0.00 | 0.00 | 94 | 1013.8 |
| 20260506155327 | 60 | 16 | 10.0 | 17.0 | 0.00 | 0.00 | 0.00 | 95 | 1014.0 |
| 20260506154338 | 60 | 350 | 10.0 | 18.0 | 0.00 | 0.00 | 0.00 | 94 | 1014.3 |
| 20260506153328 | 61 | 360 | 5.0 | 12.0 | 0.00 | 0.00 | 0.00 | 96 | 1014.3 |
| 20260506152339 | 61 | 330 | 7.0 | 20.0 | 0.00 | 0.00 | 0.00 | 95 | 1013.7 |
| 20260506151330 | 62 | 329 | 10.0 | 16.0 | 0.00 | 0.00 | 0.00 | 95 | 1013.8 |
| 20260506150341 | 63 | 15 | 7.0 | 13.0 | 0.00 | 0.00 | 0.00 | 94 | 1013.2 |
| 20260506145333 | 63 | 2 | 1.0 | 7.0 | 0.00 | 0.00 | 0.00 | 95 | 1012.5 |
| 20260506144343 | 63 | 13 | 6.0 | 18.0 | 0.00 | 0.00 | 0.00 | 95 | 1012.1 |
| 20260506143325 | 64 | 20 | 10.0 | 19.0 | 0.00 | 0.00 | 0.00 | 94 | 1012.3 |
| 20260506142331 | 65 | 317 | 7.0 | 14.0 | 0.00 | 0.00 | 0.00 | 94 | 1011.9 |
| 20260506141349 | 66 | 313 | 6.0 | 12.0 | 0.00 | 0.00 | 0.00 | 94 | 1011.4 |
| 20260506140331 | 67 | 23 | 2.0 | 13.0 | 0.00 | 0.00 | 0.00 | 94 | 1011.2 |
| 20260506135322 | 68 | 325 | 6.0 | 16.0 | 0.00 | 0.00 | 0.00 | 93 | 1011.4 |
| 20260506134332 | 73 | 11 | 11.0 | 17.0 | 0.00 | 0.00 | 0.00 | 94 | 1010.9 |
| 20260506133323 | 74 | 88 | 1.0 | 3.0 | 0.00 | 0.00 | 0.00 | 97 | 1010.3 |
| 20260506132333 | 74 | 88 | 1.0 | 4.0 | 0.00 | 0.00 | 0.00 | 97 | 1010.5 |
| 20260506131323 | 74 | 96 | 1.0 | 3.0 | 0.00 | 0.00 | 0.00 | 98 | 1010.4 |
| 20260506130335 | 74 | 103 | 0.0 | 3.0 | 0.00 | 0.00 | 0.00 | 98 | 1010.0 |
| 20260506125326 | 74 | 100 | 0.0 | 2.0 | 0.00 | 0.00 | 0.00 | 98 | 1009.9 |
| 20260506124337 | 73 | 140 | 0.0 | 1.0 | 0.00 | 0.00 | 0.00 | 98 | 1009.8 |
| 20260506123330 | 73 | 140 | 0.0 | 1.0 | 0.00 | 0.00 | 0.00 | 98 | 1009.8 |
| 20260506122340 | 73 | 140 | 0.0 | 1.0 | 0.00 | 0.00 | 0.00 | 98 | 1009.6 |
| 20260506121332 | 73 | 140 | 0.0 | 1.0 | 0.00 | 0.00 | 0.00 | 98 | 1009.6 |
| 20260506120342 | 73 | 140 | 0.0 | 1.0 | 0.00 | 0.00 | 0.00 | 97 | 1009.5 |
| 20260506115334 | 73 | 140 | 0.0 | 1.0 | 0.00 | 0.00 | 0.00 | 97 | 1009.4 |
| 20260506114345 | 73 | 140 | 0.0 | 1.0 | 0.00 | 0.00 | 0.00 | 97 | 1009.4 |
| 20260506113332 | 73 | 140 | 0.0 | 1.0 | 0.00 | 0.00 | 0.00 | 97 | 1009.5 |
| 20260506112344 | 73 | 140 | 0.0 | 1.0 | 0.00 | 0.00 | 0.00 | 96 | 1009.6 |
| 20260506111326 | 74 | 140 | 0.0 | 2.0 | 0.00 | 0.00 | 0.00 | 96 | 1009.5 |
| 20260506110346 | 74 | 196 | 0.0 | 3.0 | 0.00 | 0.00 | 0.00 | 96 | 1009.5 |
| 20260506105328 | 74 | 148 | 0.0 | 3.0 | 0.00 | 0.00 | 0.00 | 96 | 1009.4 |
| 20260506104338 | 74 | 144 | 0.0 | 3.0 | 0.00 | 0.00 | 0.00 | 96 | 1009.5 |
| 20260506103329 | 74 | 141 | 0.0 | 1.0 | 0.00 | 0.00 | 0.00 | 96 | 1009.4 |
| 20260506102340 | 74 | 141 | 0.0 | 1.0 | 0.00 | 0.00 | 0.00 | 96 | 1009.2 |
| 20260506101330 | 74 | 140 | 0.0 | 2.0 | 0.00 | 0.00 | 0.00 | 96 | 1009.2 |
| 20260506100337 | 74 | 133 | 0.0 | 2.0 | 0.00 | 0.00 | 0.00 | 95 | 1009.1 |
| 20260506095329 | 75 | 162 | 0.0 | 4.0 | 0.00 | 0.00 | 0.00 | 95 | 1009.0 |
| 20260506094341 | 75 | 146 | 2.0 | 5.0 | 0.00 | 0.00 | 0.00 | 94 | 1008.8 |
| 20260506093332 | 75 | 145 | 1.0 | 5.0 | 0.00 | 0.00 | 0.00 | 93 | 1008.7 |
| 20260506092340 | 75 | 107 | 1.0 | 3.0 | 0.00 | 0.00 | 0.00 | 93 | 1008.6 |
| 20260506091330 | 75 | 134 | 1.0 | 4.0 | 0.00 | 0.00 | 0.00 | 92 | 1008.7 |
| 20260506090341 | 75 | 123 | 0.0 | 4.0 | 0.00 | 0.00 | 0.00 | 92 | 1008.7 |
| 20260506085332 | 75 | 129 | 1.0 | 5.0 | 0.00 | 0.00 | 0.00 | 92 | 1008.6 |
| 20260506084343 | 76 | 131 | 3.0 | 9.0 | 0.00 | 0.00 | 0.00 | 92 | 1008.6 |
| 20260506083334 | 76 | 152 | 1.0 | 7.0 | 0.00 | 0.00 | 0.00 | 92 | 1008.6 |
| 20260506082346 | 75 | 158 | 1.0 | 5.0 | 0.00 | 0.00 | 0.00 | 92 | 1008.5 |
| 20260506081337 | 76 | 198 | 2.0 | 6.0 | 0.00 | 0.00 | 0.00 | 92 | 1008.5 |
| 20260506080347 | 76 | 182 | 2.0 | 7.0 | 0.00 | 0.00 | 0.00 | 92 | 1008.6 |
| 20260506073331 | 76 | 167 | 4.0 | 12.0 | 0.00 | 0.00 | 0.00 | 91 | 1008.6 |
| 20260506072323 | 76 | 124 | 5.0 | 11.0 | 0.00 | 0.00 | 0.00 | 91 | 1008.6 |
| 20260506071333 | 76 | 182 | 7.0 | 14.0 | 0.00 | 0.00 | 0.00 | 92 | 1008.6 |
| 20260506070324 | 76 | 191 | 2.0 | 11.0 | 0.00 | 0.00 | 0.00 | 92 | 1008.6 |
| 20260506062324 | 76 | 103 | 5.0 | 10.0 | 0.00 | 0.00 | 0.00 | 92 | 1008.5 |
| 20260506061334 | 76 | 126 | 3.0 | 12.0 | 0.00 | 0.00 | 0.00 | 92 | 1008.4 |
| 20260506060325 | 76 | 157 | 3.0 | 8.0 | 0.00 | 0.00 | 0.00 | 92 | 1008.5 |
| 20260506051337 | 76 | 140 | 3.0 | 9.0 | 0.00 | 0.00 | 0.00 | 92 | 1008.5 |
| 20260506050350 | 76 | 157 | 5.0 | 10.0 | 0.00 | 0.00 | 0.00 | 92 | 1008.6 |
| 20260506044339 | 76 | 186 | 4.0 | 10.0 | 0.00 | 0.00 | 0.00 | 92 | 1008.5 |
| 20260506043350 | 76 | 108 | 4.0 | 10.0 | 0.00 | 0.00 | 0.00 | 92 | 1008.6 |
| 20260506042340 | 76 | 157 | 2.0 | 7.0 | 0.00 | 0.00 | 0.00 | 91 | 1008.4 |
| 20260506041323 | 76 | 164 | 3.0 | 8.0 | 0.00 | 0.00 | 0.00 | 91 | 1008.4 |
| 20260506040344 | 76 | 160 | 1.0 | 5.0 | 0.00 | 0.00 | 0.00 | 91 | 1008.5 |
| 20260506035325 | 77 | 163 | 1.0 | 5.0 | 0.00 | 0.00 | 0.00 | 90 | 1008.3 |
| 20260506034337 | 77 | 142 | 1.0 | 7.0 | 0.00 | 0.00 | 0.00 | 89 | 1008.1 |
| 20260506033328 | 77 | 125 | 2.0 | 7.0 | 0.00 | 0.00 | 0.00 | 88 | 1007.9 |
| 20260506032339 | 78 | 127 | 2.0 | 8.0 | 0.00 | 0.00 | 0.00 | 87 | 1008.0 |
| 20260506031329 | 78 | 179 | 3.0 | 9.0 | 0.00 | 0.00 | 0.00 | 87 | 1007.8 |
| 20260506030340 | 78 | 150 | 3.0 | 6.0 | 0.00 | 0.00 | 0.00 | 86 | 1007.6 |
| 20260506025330 | 78 | 134 | 2.0 | 6.0 | 0.00 | 0.00 | 0.00 | 86 | 1007.5 |
| 20260506024340 | 78 | 175 | 1.0 | 6.0 | 0.00 | 0.00 | 0.00 | 86 | 1007.5 |
| 20260506023331 | 79 | 153 | 1.0 | 5.0 | 0.00 | 0.00 | 0.00 | 85 | 1007.3 |
| 20260506022322 | 79 | 161 | 1.0 | 7.0 | 0.00 | 0.00 | 0.00 | 85 | 1007.0 |
| 20260506021334 | 79 | 134 | 1.0 | 4.0 | 0.00 | 0.00 | 0.00 | 85 | 1006.9 |
| 20260506020325 | 79 | 139 | 1.0 | 4.0 | 0.00 | 0.00 | 0.00 | 84 | 1006.7 |
| 20260506015336 | 79 | 149 | 0.0 | 4.0 | 0.00 | 0.00 | 0.00 | 84 | 1006.8 |
| 20260506014330 | 80 | 139 | 0.0 | 4.0 | 0.00 | 0.00 | 0.00 | 83 | 1006.6 |
| 20260506013339 | 80 | 103 | 1.0 | 5.0 | 0.00 | 0.00 | 0.00 | 82 | 1006.5 |
| 20260506012346 | 80 | 131 | 2.0 | 7.0 | 0.00 | 0.00 | 0.00 | 81 | 1006.4 |
| 20260506011325 | 81 | 151 | 2.0 | 5.0 | 0.00 | 0.00 | 0.00 | 80 | 1006.3 |
| 20260506010344 | 82 | 126 | 3.0 | 7.0 | 0.00 | 0.00 | 0.00 | 78 | 1006.3 |
| 20260506005326 | 82 | 146 | 3.0 | 7.0 | 0.00 | 0.00 | 0.00 | 77 | 1006.3 |
| 20260506004337 | 83 | 150 | 4.0 | 8.0 | 0.00 | 0.00 | 0.00 | 76 | 1006.3 |
| 20260506003325 | 83 | 205 | 3.0 | 11.0 | 0.00 | 0.00 | 0.00 | 76 | 1006.2 |
| 20260506002336 | 84 | 233 | 4.0 | 9.0 | 0.00 | 0.00 | 0.00 | 75 | 1006.3 |